Home > Weather > Pasadena > Past weeks

Flag for U.S.A. Weather for the Past 2 Weeks in Pasadena, Texas, U.S.A.

Now
61 °F

Partly sunny.


Feels Like: 61 °F
Forecast: 62 / 73 °F
Wind: 3 mph from South

Location: Houston / Ellington

Current Time: Feb 14, 2016 at 9:05:06 AM

Latest Report: Feb 14, 2016 at 7:50 AM


Visibility: 7 mi

Pressure: 30.10 "Hg

Humidity: 88%

Dew point: 57 °F

Location of PasadenaLocation

Historic Weather in Pasadena — Graph

°F

Pasadena Temperature Yesterday

Maximum temperature yesterday: 64 °F (at 10:50 AM)
Minimum temperature yesterday: 59 °F (at 3:50 AM)
Average temperature yesterday: 61 °F

High & Low Weather Summary for the Past Weeks

 TemperatureHumidityPressure
High79 °F (Feb 12, 11:50 AM)100% (Feb 1, 6:50 PM)30.50 "Hg (Feb 1, 6:50 PM)
Low39 °F (Feb 7, 5:50 AM)6% (Feb 8, 12:50 PM)29.61 "Hg (Feb 2, 2:50 AM)
Average59 °F59%30.19 "Hg
* Reported Jan 30 7:50 AM — Feb 14 7:50 AM, Pasadena, Weather by CustomWeather, © 2016

Note: Actual official high and low records may vary slightly from our data, if they occured in-between our weather recording intervals... More about our weather records

Advertising

Pasadena Weather History for the Previous 24 Hours

 ConditionsComfort  
Time TempWeatherWind HumidityBarometerVisibility
7:50 AM
Sun, Feb 14
61 °FPartly sunny.3 mph88%30.10 "Hg7 mi
6:50 AM59 °FPassing clouds.3 mph94%30.10 "Hg7 mi
5:50 AM59 °FPassing clouds.3 mph94%30.10 "Hg7 mi
4:50 AM59 °FPassing clouds.No wind94%30.12 "Hg7 mi
3:50 AM59 °FPassing clouds.3 mph94%30.12 "Hg7 mi
2:50 AM59 °FPassing clouds.5 mph94%30.13 "Hg10 mi
1:50 AM59 °FPassing clouds.6 mph94%30.16 "Hg10 mi
12:50 AM59 °FPassing clouds.7 mph94%30.18 "Hg10 mi
11:50 PM
Sat, Feb 13
59 °FPassing clouds.6 mph94%30.21 "Hg10 mi
10:50 PM59 °FPartly cloudy.8 mph94%30.22 "Hg10 mi
9:50 PM59 °FPartly cloudy.7 mph94%30.24 "Hg10 mi
8:50 PM59 °FPartly cloudy.9 mph88%30.25 "Hg10 mi
7:50 PM59 °FPartly cloudy.8 mph88%30.27 "Hg10 mi
6:50 PM61 °FPassing clouds.8 mph88%30.27 "Hg10 mi
5:50 PM61 °FPartly sunny.12 mph83%30.28 "Hg10 mi
4:50 PM63 °FPartly sunny.10 mph77%30.28 "Hg10 mi
3:50 PM64 °FScattered clouds.14 mph73%30.30 "Hg10 mi
2:55 PM63 °FPartly sunny.12 mph73%30.33 "Hg10 mi
1:50 PM63 °FPartly sunny.10 mph77%30.33 "Hg10 mi
12:50 PM64 °FPartly sunny.15 mph73%30.37 "Hg10 mi
11:50 AM64 °FPartly sunny.13 mph73%30.38 "Hg10 mi
10:50 AM64 °FScattered clouds.16 mph60%30.40 "Hg10 mi
9:50 AM63 °FPassing clouds.13 mph64%30.40 "Hg10 mi
Weather by CustomWeather, © 2016

See weather overviewHow to use our weather pages